• In Hungary
  • List of Countries
  • For 7 days
  • Water Temperature
  • Satellite Maps
  • Weather Map
  • News
  • Weather Widgets
  • user-avatar
    Login

    Hourly Weather Sankt Gilgen

    Today, 23 October, Monday

    Time Temperature Precipitation Wind Pressure Humidity
    00:00 +2°C° 0.6 mm 3 mps 682 mmHg 94%
    01:00 +3°C° 0 mm 2 mps 681 mmHg 95%
    02:00 +2°C° 0.8 mm 3 mps 681 mmHg 95%
    03:00 +2°C° 0.8 mm 3 mps 681 mmHg 94%
    04:00 +1°C° 0.8 mm 4 mps 681 mmHg 94%
    05:00 +1°C° 0.9 mm 4 mps 682 mmHg 94%
    06:00 +1°C° 0.9 mm 4 mps 682 mmHg 94%
    07:00 +2°C° 0 mm 3 mps 682 mmHg 94%
    08:00 +1°C° 0.8 mm 4 mps 682 mmHg 92%
    09:00 +3°C° 0.8 mm 4 mps 682 mmHg 91%
    10:00 +3°C° 0.8 mm 4 mps 682 mmHg 89%
    11:00 +3°C° 0.7 mm 4 mps 683 mmHg 89%
    12:00 +4°C° 0.7 mm 4 mps 683 mmHg 89%
    13:00 +4°C° 0.7 mm 4 mps 683 mmHg 89%
    14:00 +4°C° 0.7 mm 4 mps 683 mmHg 90%
    15:00 +3°C° 0.7 mm 4 mps 684 mmHg 91%
    16:00 +3°C° 0.7 mm 4 mps 684 mmHg 92%
    17:00 +3°C° 0.8 mm 3 mps 684 mmHg 93%
    18:00 +3°C° 0.8 mm 3 mps 685 mmHg 93%
    19:00 +3°C° 0.8 mm 3 mps 685 mmHg 94%
    20:00 +3°C° 0.9 mm 3 mps 685 mmHg 95%
    21:00 +3°C° 0.9 mm 3 mps 686 mmHg 95%
    22:00 +3°C° 0.9 mm 3 mps 686 mmHg 95%
    23:00 +3°C° 0.7 mm 3 mps 686 mmHg 95%

    Tomorrow, 24 October, Tuesday

    Time Temperature Precipitation Wind Pressure Humidity
    00:00 +3°C° 0.7 mm 3 mps 687 mmHg 96%
    01:00 +3°C° 0.7 mm 3 mps 687 mmHg 96%
    02:00 +3°C° 0.7 mm 3 mps 687 mmHg 96%
    03:00 +3°C° 0.7 mm 3 mps 687 mmHg 96%
    04:00 +3°C° 0.7 mm 3 mps 687 mmHg 96%
    05:00 +3°C° 0.6 mm 3 mps 688 mmHg 96%
    06:00 +4°C° 0.6 mm 2 mps 688 mmHg 96%
    07:00 +4°C° 0.6 mm 2 mps 688 mmHg 96%
    08:00 +5°C° 0.2 mm 2 mps 688 mmHg 95%
    09:00 +5°C° 0.2 mm 2 mps 688 mmHg 93%
    10:00 +6°C° 0.2 mm 2 mps 689 mmHg 92%
    11:00 +6°C° 0.1 mm 2 mps 689 mmHg 90%
    12:00 +7°C° 0.1 mm 2 mps 689 mmHg 89%
    13:00 +7°C° 0.1 mm 2 mps 689 mmHg 87%
    14:00 +7°C° 0 mm 2 mps 688 mmHg 88%
    15:00 +8°C° 0 mm 1 mps 688 mmHg 90%
    16:00 +8°C° 0 mm 1 mps 688 mmHg 91%
    17:00 +7°C° 0 mm 1 mps 689 mmHg 91%
    18:00 +7°C° 0 mm 1 mps 689 mmHg 92%
    19:00 +7°C° 0 mm 1 mps 689 mmHg 92%
    20:00 +6°C° 0 mm 1 mps 690 mmHg 92%
    21:00 +6°C° 0 mm 1 mps 690 mmHg 92%
    22:00 +6°C° 0 mm 1 mps 690 mmHg 92%
    23:00 +6°C° 0 mm 1 mps 690 mmHg 91%

    Day after tomorrow, 25 October, Wednesday

    Time Temperature Precipitation Wind Pressure Humidity
    00:00 +6°C° 0 mm 1 mps 690 mmHg 90%
    01:00 +6°C° 0 mm 1 mps 690 mmHg 90%
    02:00 +6°C° 0 mm 1 mps 689 mmHg 89%
    03:00 +6°C° 0 mm 1 mps 689 mmHg 89%
    04:00 +6°C° 0 mm 1 mps 689 mmHg 89%
    05:00 +6°C° 0 mm 1 mps 689 mmHg 89%
    06:00 +6°C° 0 mm 1 mps 689 mmHg 90%
    07:00 +6°C° 0 mm 1 mps 689 mmHg 91%
    08:00 +7°C° 0 mm 1 mps 689 mmHg 87%
    09:00 +9°C° 0 mm 1 mps 690 mmHg 84%
    10:00 +11°C° 0 mm 1 mps 690 mmHg 81%
    11:00 +12°C° 0 mm 1 mps 690 mmHg 79%
    12:00 +13°C° 0 mm 1 mps 690 mmHg 77%
    13:00 +14°C° 0 mm 1 mps 690 mmHg 76%
    14:00 +13°C° 0 mm 1 mps 690 mmHg 79%
    15:00 +12°C° 0 mm 0 mps 690 mmHg 82%
    16:00 +11°C° 0 mm 0 mps 690 mmHg 86%
    17:00 +11°C° 0 mm 1 mps 690 mmHg 88%
    18:00 +10°C° 0 mm 1 mps 690 mmHg 90%
    19:00 +8°C° 0 mm 1 mps 690 mmHg 93%
    20:00 +8°C° 0 mm 1 mps 690 mmHg 92%
    21:00 +8°C° 0 mm 1 mps 690 mmHg 91%
    22:00 +7°C° 0 mm 1 mps 691 mmHg 90%
    23:00 +7°C° 0 mm 1 mps 691 mmHg 89%

    26 October, Thursday

    Time Temperature Precipitation Wind Pressure Humidity
    00:00 +7°C° 0 mm 1 mps 691 mmHg 88%
    01:00 +7°C° 0 mm 1 mps 691 mmHg 88%
    02:00 +7°C° 0 mm 1 mps 691 mmHg 87%
    03:00 +7°C° 0 mm 1 mps 691 mmHg 87%
    04:00 +7°C° 0 mm 1 mps 690 mmHg 87%
    05:00 +7°C° 0 mm 1 mps 690 mmHg 86%
    06:00 +7°C° 0 mm 1 mps 690 mmHg 86%
    07:00 +7°C° 0 mm 1 mps 690 mmHg 86%
    08:00 +9°C° 0 mm 1 mps 691 mmHg 82%
    09:00 +11°C° 0 mm 1 mps 691 mmHg 79%
    10:00 +12°C° 0 mm 0 mps 691 mmHg 76%
    11:00 +13°C° 0 mm 0 mps 691 mmHg 74%
    12:00 +15°C° 0 mm 1 mps 691 mmHg 72%
    13:00 +15°C° 0 mm 1 mps 691 mmHg 70%
    14:00 +15°C° 0 mm 1 mps 690 mmHg 74%
    15:00 +14°C° 0 mm 1 mps 690 mmHg 78%
    16:00 +12°C° 0 mm 0 mps 690 mmHg 82%
    17:00 +12°C° 0 mm 1 mps 690 mmHg 84%
    18:00 +11°C° 0 mm 1 mps 690 mmHg 86%
    19:00 +9°C° 0 mm 1 mps 689 mmHg 89%
    20:00 +8°C° 0 mm 2 mps 689 mmHg 87%
    21:00 +8°C° 0 mm 2 mps 689 mmHg 86%
    22:00 +7°C° 0 mm 2 mps 689 mmHg 84%
    23:00 +7°C° 0 mm 2 mps 689 mmHg 83%

    27 October, Friday

    Time Temperature Precipitation Wind Pressure Humidity
    00:00 +7°C° 0 mm 2 mps 689 mmHg 81%
    01:00 +7°C° 0 mm 2 mps 688 mmHg 80%
    02:00 +7°C° 0 mm 2 mps 688 mmHg 79%
    03:00 +7°C° 0 mm 2 mps 688 mmHg 79%
    04:00 +7°C° 0 mm 2 mps 687 mmHg 79%
    05:00 +7°C° 0 mm 2 mps 687 mmHg 79%
    06:00 +7°C° 0 mm 2 mps 687 mmHg 79%
    07:00 +6°C° 0 mm 2 mps 687 mmHg 80%
    08:00 +8°C° 0 mm 2 mps 687 mmHg 78%
    09:00 +10°C° 0 mm 2 mps 687 mmHg 77%
    10:00 +11°C° 0 mm 3 mps 687 mmHg 76%
    11:00 +11°C° 0.1 mm 3 mps 686 mmHg 77%
    12:00 +12°C° 0.1 mm 3 mps 686 mmHg 78%
    13:00 +12°C° 0.1 mm 3 mps 685 mmHg 79%
    14:00 +11°C° 0.7 mm 3 mps 685 mmHg 83%
    15:00 +10°C° 0.7 mm 3 mps 685 mmHg 87%
    16:00 +9°C° 0.7 mm 3 mps 684 mmHg 92%
    17:00 +8°C° 2.5 mm 3 mps 685 mmHg 93%
    18:00 +8°C° 2.5 mm 3 mps 685 mmHg 95%
    19:00 +7°C° 2.5 mm 3 mps 685 mmHg 96%
    20:00 +5°C° 2 mm 3 mps 685 mmHg 95%
    21:00 +5°C° 2 mm 3 mps 686 mmHg 95%
    22:00 +5°C° 2 mm 3 mps 686 mmHg 94%
    23:00 +4°C° 0.4 mm 3 mps 686 mmHg 95%

    28 October, Saturday

    Time Temperature Precipitation Wind Pressure Humidity
    00:00 +4°C° 0.4 mm 3 mps 686 mmHg 95%
    01:00 +3°C° 0.4 mm 3 mps 686 mmHg 95%
    02:00 +3°C° 0.3 mm 3 mps 686 mmHg 95%
    03:00 +3°C° 0.3 mm 3 mps 686 mmHg 95%
    04:00 +2°C° 0.3 mm 3 mps 686 mmHg 96%
    05:00 +2°C° 0.3 mm 3 mps 686 mmHg 95%
    06:00 +2°C° 0.3 mm 3 mps 686 mmHg 95%
    07:00 +2°C° 0.3 mm 3 mps 686 mmHg 95%
    08:00 +2°C° 0.3 mm 3 mps 686 mmHg 93%
    09:00 +3°C° 0.3 mm 4 mps 687 mmHg 90%
    10:00 +3°C° 0.3 mm 4 mps 687 mmHg 88%
    11:00 +2°C° 0.4 mm 5 mps 686 mmHg 87%
    12:00 +2°C° 0.4 mm 5 mps 686 mmHg 86%
    13:00 +3°C° 0.4 mm 5 mps 686 mmHg 84%
    14:00 +2°C° 0.6 mm 5 mps 685 mmHg 86%
    15:00 +2°C° 0.6 mm 5 mps 685 mmHg 87%
    16:00 +3°C° 0.6 mm 4 mps 685 mmHg 88%
    17:00 +3°C° 0.7 mm 4 mps 685 mmHg 89%
    18:00 +3°C° 0.7 mm 4 mps 686 mmHg 90%
    19:00 +1°C° 0.7 mm 4 mps 686 mmHg 91%
    20:00 +1°C° 0.7 mm 4 mps 686 mmHg 92%
    21:00 +1°C° 0.7 mm 4 mps 686 mmHg 92%
    22:00 +1°C° 0.7 mm 4 mps 686 mmHg 93%
    23:00 +1°C° 0.6 mm 4 mps 686 mmHg 93%

    29 October, Sunday

    Time Temperature Precipitation Wind Pressure Humidity
    00:00 +1°C° 0.6 mm 4 mps 686 mmHg 93%
    01:00 +1°C° 0.6 mm 4 mps 686 mmHg 93%
    02:00 +1°C° 0.3 mm 4 mps 686 mmHg 93%
    03:00 +1°C° 0.3 mm 4 mps 686 mmHg 93%
    04:00 +1°C° 0.3 mm 4 mps 686 mmHg 93%
    05:00 +1°C° 0.2 mm 4 mps 686 mmHg 93%
    06:00 +1°C° 0.2 mm 4 mps 686 mmHg 93%
    07:00 +1°C° 0.2 mm 4 mps 686 mmHg 93%
    08:00 +3°C° 0.1 mm 4 mps 686 mmHg 92%
    09:00 +3°C° 0.1 mm 4 mps 686 mmHg 91%
    10:00 +4°C° 0.1 mm 4 mps 686 mmHg 90%
    11:00 +4°C° 0.1 mm 4 mps 685 mmHg 89%
    12:00 +4°C° 0.1 mm 3 mps 685 mmHg 89%
    13:00 +4°C° 0.1 mm 3 mps 684 mmHg 89%
    14:00 +4°C° 0.2 mm 3 mps 684 mmHg 90%
    15:00 +4°C° 0.2 mm 3 mps 684 mmHg 90%
    16:00 +4°C° 0.2 mm 3 mps 683 mmHg 91%
    17:00 +4°C° 0.5 mm 3 mps 683 mmHg 92%
    18:00 +3°C° 0.5 mm 3 mps 683 mmHg 93%
    19:00 +3°C° 0.5 mm 3 mps 683 mmHg 94%
    20:00 +3°C° 0.1 mm 3 mps 683 mmHg 94%
    21:00 +3°C° 0.1 mm 3 mps 683 mmHg 94%
    22:00 +3°C° 0.1 mm 3 mps 683 mmHg 93%
    23:00 +2°C° 0 mm 3 mps 682 mmHg 94%
    Show more